Vorticity
3 1 8 5 0 3 2 3 3 8 1 1 -3 -12 1 3 5 7 10 8 8 10 5 7 8 7 9 9 7 9 11 14 12 9 16 16 17 18 10 19 33 22 11
5 6 8 6 1 1 -1 1 5 9 7 -1 -12 20 9 7 8 4 11 8 12 9 8 7 9 9 9 6 8 10 12 10 12 16 9 12 14 16 26 11 20 32 36
9 9 4 4 4 3 1 1 -0 -3 2 10 32 59 -41 9 8 8 6 10 7 7 8 9 9 8 7 9 12 13 9 14 9 13 16 24 17 21 19 32 36 25 31
2 6 9 8 2 2 1 5 2 2 5 -0 -2 10 10 5 5 8 10 6 6 9 7 8 8 9 8 15 9 10 12 9 9 13 16 12 29 12 32 5 6 11 8
6 14 11 -0 -3 3 12 8 6 5 3 2 9 2 9 8 10 7 7 6 8 9 7 7 10 7 17 7 12 16 12 7 16 9 15 27 10 15 5 30 7 -5 22
4 11 4 5 7 1 5 5 3 0 0 9 2 6 11 8 12 8 6 8 8 6 8 6 7 12 11 20 22 12 11 14 8 11 21 37 3 16 41 20 19 36 23
14 5 -1 2 -1 1 2 0 -1 1 4 9 -10 32 2 11 6 8 8 10 8 8 7 5 11 10 21 18 9 17 9 9 13 9 20 42 11 3 30 10 13 14 19
6 2 2 4 3 1 2 2 2 1 -10 -14 8 3 10 6 8 4 8 11 6 7 9 12 10 13 21 14 8 9 14 17 7 10 21 20 19 12 20 12 -2 27 26
5 5 5 2 1 -2 1 2 0 2 4 36 14 -5 4 5 11 12 11 6 9 6 8 12 16 14 12 14 5 13 16 13 5 17 23 21 41 12 11 10 21 12 37
4 1 2 2 3 1 1 3 -3 -2 2 11 29 -3 7 29 18 13 8 7 10 7 15 10 20 15 24 3 10 11 21 13 3 20 54 45 -10 12 5 19 12 17 14
3 5 -4 2 5 6 2 5 3 -2 4 -19 56 -1 10 27 14 17 -1 10 6 16 11 13 10 18 9 7 7 15 15 7 31 6 33 4 33 16 9 9 10 13 8
9 0 3 6 11 24 27 10 7 4 3 -2 24 -0 -1 20 15 -2 1 20 7 12 12 11 19 15 9 10 11 14 0 12 -1 10 31 21 21 5 12 8 20 -1 2
1 9 8 -14 11 2 5 2 3 4 36 78 12 13 8 18 10 2 18 4 16 14 11 12 21 10 7 6 16 35 -3 6 12 2 9 39 13 21 5 19 8 32 -3
12 7 4 7 10 6 5 6 4 56 77 -0 13 3 7 19 14 10 6 17 14 10 10 15 19 14 12 15 32 0 11 17 7 22 2 -10 60 9 -12 12 13 7 34
14 8 3 10 -2 2 1 3 -28 2 12 7 2 14 5 13 11 13 17 14 16 8 11 16 10 6 14 5 29 1 10 7 5 18 1 4 -5 81 29 24 4 1 -1
9 2 -6 9 11 2 18 71 -1 15 2 8 7 12 2 13 12 16 15 15 9 9 11 13 5 12 13 6 35 -4 0 7 11 11 11 16 15 6 9 52 51 28 25
-3 10 24 15 3 39 104 3 20 8 1 10 15 12 12 14 16 15 16 10 13 10 12 10 22 10 3 3 20 6 1 8 10 11 13 11 8 14 1 -5 7 13 50
57 33 -20 37 64 10 15 8 7 7 14 14 13 12 15 16 18 16 13 6 11 16 11 30 12 6 12 15 19 9 2 3 7 8 5 8 12 9 9 10 1 1 7
15 4 19 20 14 7 7 8 9 13 15 11 15 17 15 17 17 16 9 13 16 14 19 10 5 10 14 6 12 21 10 -3 2 4 2 3 5 7 9 7 7 8 7
6 5 7 13 9 6 6 7 15 13 16 13 18 18 13 18 17 11 11 13 4 15 8 29 22 6 10 10 11 10 7 11 7 11 8 8 11 13 10 6 7 7 7
9 15 12 8 7 9 7 15 14 12 11 16 16 13 19 14 9 12 8 11 30 19 9 7 6 12 10 19 19 16 13 13 10 9 8 7 9 9 8 8 9 8 7
9 8 6 5 6 14 14 15 13 13 15 16 15 16 10 11 12 9 18 9 23 5 -4 12 8 14 10 4 5 5 8 10 10 10 9 10 10 8 8 9 9 8 8
9 10 2 7 13 15 15 14 15 15 15 12 17 8 12 7 7 11 24 20 19 11 10 8 14 10 4 5 8 9 9 8 9 10 10 9 10 10 11 11 10 10 11
11 5 11 19 18 17 14 14 13 15 9 13 12 10 11 16 13 14 23 5 11 11 13 14 6 6 8 8 11 13 15 14 15 14 12 11 11 11 14 14 14 12 11
5 12 22 16 11 12 12 14 12 11 15 17 8 11 22 21 10 9 11 10 3 11 7 6 6 7 10 10 9 10 9 9 11 12 13 13 14 15 15 14 12 11 11
22 14 12 11 11 15 15 12 14 20 16 12 13 18 13 5 11 12 9 9 12 7 7 7 8 10 11 13 14 15 16 15 14 12 13 13 13 11 11 9 8 8 9
Height
5925 5924 5923 5921 5919 5917 5916 5913 5910 5908 5904 5900 5897 5893 5891 5884 5880 5873 5867 5861 5855 5849 5844 5838 5830 5822 5816 5808 5800 5793 5786 5778 5771 5767 5757 5750 5743 5733 5729 5729 5729 5728 5730
5920 5919 5919 5917 5916 5913 5911 5908 5906 5904 5898 5894 5892 5892 5884 5878 5872 5866 5860 5853 5848 5842 5836 5829 5821 5813 5806 5798 5789 5779 5772 5764 5757 5751 5741 5735 5728 5718 5714 5710 5709 5708 5711
5917 5916 5914 5913 5911 5909 5906 5903 5900 5899 5893 5887 5883 5878 5867 5869 5864 5859 5852 5846 5839 5833 5826 5818 5811 5804 5796 5788 5779 5769 5761 5752 5744 5737 5729 5722 5712 5702 5699 5694 5692 5693 5696
5912 5911 5909 5908 5907 5904 5901 5897 5895 5893 5890 5883 5878 5873 5865 5860 5857 5851 5844 5838 5831 5823 5814 5807 5801 5792 5784 5776 5767 5759 5750 5741 5734 5726 5718 5712 5701 5696 5687 5685 5685 5683 5683
5907 5905 5904 5903 5901 5899 5896 5893 5890 5888 5885 5879 5875 5869 5862 5855 5850 5842 5835 5829 5822 5813 5805 5797 5791 5782 5774 5764 5755 5747 5739 5731 5723 5715 5707 5700 5692 5686 5679 5677 5677 5675 5673
5901 5900 5899 5898 5896 5893 5890 5887 5885 5881 5878 5873 5868 5862 5855 5847 5840 5833 5826 5819 5812 5805 5797 5789 5781 5771 5765 5755 5747 5738 5729 5720 5713 5704 5696 5690 5683 5677 5672 5668 5667 5664 5664
5895 5893 5893 5891 5889 5886 5883 5880 5876 5873 5869 5864 5857 5846 5842 5837 5830 5823 5818 5811 5804 5797 5789 5781 5774 5764 5756 5748 5740 5732 5724 5714 5703 5693 5687 5682 5677 5671 5665 5663 5660 5658 5656
5888 5887 5886 5884 5881 5878 5875 5873 5868 5864 5858 5853 5846 5839 5836 5830 5822 5816 5810 5803 5796 5788 5781 5774 5766 5757 5751 5743 5735 5727 5719 5710 5700 5690 5680 5675 5670 5667 5662 5660 5658 5654 5653
5881 5880 5879 5877 5873 5870 5867 5863 5858 5854 5848 5843 5837 5830 5825 5821 5813 5807 5801 5795 5788 5780 5774 5768 5759 5751 5744 5738 5730 5722 5714 5706 5697 5686 5677 5672 5667 5664 5661 5658 5655 5653 5650
5874 5872 5871 5868 5864 5861 5857 5853 5847 5842 5837 5831 5824 5822 5816 5808 5803 5798 5792 5786 5780 5773 5766 5760 5755 5746 5739 5733 5725 5718 5710 5703 5696 5687 5676 5669 5665 5663 5661 5658 5655 5653 5652
5864 5863 5860 5857 5854 5851 5846 5842 5837 5833 5827 5821 5812 5811 5805 5798 5794 5789 5784 5778 5771 5765 5758 5752 5748 5741 5734 5727 5720 5714 5708 5701 5692 5683 5673 5666 5662 5662 5661 5658 5656 5654 5653
5852 5852 5849 5846 5844 5839 5834 5831 5828 5823 5818 5811 5805 5801 5796 5789 5786 5781 5776 5771 5764 5757 5751 5747 5742 5735 5729 5723 5716 5710 5705 5698 5691 5683 5672 5666 5663 5662 5661 5659 5657 5656 5654
5843 5841 5836 5834 5828 5827 5824 5820 5817 5810 5804 5795 5786 5788 5787 5780 5778 5773 5768 5763 5757 5751 5746 5742 5738 5730 5726 5720 5713 5708 5703 5697 5690 5684 5676 5668 5663 5661 5660 5658 5657 5655 5655
5833 5831 5826 5825 5820 5818 5816 5810 5808 5797 5790 5787 5785 5780 5776 5772 5771 5764 5760 5755 5750 5746 5741 5737 5733 5727 5722 5716 5710 5707 5702 5697 5691 5685 5678 5671 5665 5662 5660 5659 5659 5656 5656
5824 5821 5818 5815 5811 5808 5805 5801 5797 5788 5786 5779 5776 5772 5766 5764 5762 5757 5754 5748 5744 5741 5736 5733 5729 5724 5719 5714 5709 5707 5703 5698 5692 5686 5681 5675 5671 5664 5660 5658 5658 5658 5658
5812 5809 5806 5803 5800 5796 5790 5787 5785 5781 5775 5772 5768 5763 5759 5757 5753 5750 5745 5741 5738 5734 5730 5728 5725 5720 5715 5711 5707 5705 5702 5698 5693 5688 5682 5678 5675 5671 5665 5660 5658 5657 5656
5801 5796 5792 5787 5781 5782 5775 5775 5774 5771 5765 5764 5759 5755 5752 5750 5746 5742 5738 5735 5732 5728 5725 5721 5719 5716 5712 5708 5706 5704 5701 5697 5694 5689 5685 5681 5678 5675 5671 5667 5664 5659 5657
5786 5781 5778 5773 5772 5767 5770 5767 5764 5760 5756 5752 5751 5747 5745 5742 5739 5736 5732 5729 5726 5722 5718 5716 5713 5712 5709 5706 5704 5702 5700 5697 5694 5691 5687 5683 5680 5676 5674 5672 5670 5667 5664
5774 5770 5767 5765 5766 5763 5759 5755 5752 5749 5747 5744 5744 5739 5737 5734 5733 5730 5726 5723 5720 5717 5714 5712 5710 5708 5706 5704 5701 5699 5698 5696 5693 5690 5687 5684 5682 5679 5676 5674 5672 5670 5668
5765 5762 5760 5758 5754 5752 5751 5747 5742 5740 5739 5737 5734 5732 5730 5729 5726 5723 5720 5717 5715 5712 5710 5708 5705 5704 5702 5700 5698 5696 5695 5693 5691 5688 5686 5684 5682 5679 5677 5675 5673 5671 5669
5756 5755 5755 5751 5748 5744 5741 5737 5734 5732 5732 5730 5729 5726 5724 5722 5720 5717 5715 5712 5709 5707 5707 5705 5704 5701 5699 5697 5695 5693 5691 5689 5688 5686 5684 5682 5680 5678 5676 5674 5672 5670 5669
5746 5747 5745 5742 5738 5733 5729 5728 5727 5727 5725 5724 5723 5719 5718 5716 5714 5711 5708 5707 5705 5704 5703 5702 5700 5698 5696 5694 5693 5691 5689 5686 5685 5683 5681 5679 5677 5675 5674 5672 5671 5669 5668
5738 5736 5734 5731 5728 5725 5723 5722 5720 5720 5718 5717 5715 5713 5712 5710 5708 5706 5704 5702 5701 5700 5699 5698 5697 5695 5693 5692 5689 5687 5686 5684 5682 5680 5678 5676 5674 5672 5671 5669 5667 5666 5665
5729 5726 5723 5722 5721 5719 5717 5716 5714 5713 5711 5710 5709 5707 5705 5704 5702 5701 5700 5699 5698 5697 5695 5694 5693 5692 5689 5687 5685 5683 5681 5679 5677 5675 5673 5672 5670 5669 5667 5666 5664 5663 5662
5720 5717 5715 5714 5713 5712 5709 5708 5707 5706 5704 5703 5702 5701 5699 5697 5697 5697 5696 5695 5694 5693 5692 5690 5688 5686 5684 5683 5681 5679 5677 5674 5672 5670 5669 5668 5666 5665 5664 5662 5661 5660 5658
5709 5707 5707 5707 5705 5704 5702 5701 5700 5699 5698 5697 5696 5695 5695 5694 5693 5693 5692 5691 5690 5689 5687 5685 5683 5682 5680 5678 5676 5674 5672 5670 5668 5666 5665 5664 5662 5661 5660 5659 5658 5656 5654